Watsonville, CA

12:51 PM PST on January 18, 2018 (GMT -0800)
Watsonville Municipal

Weather History for KWVI - March, 2012

Change the Weather History Date:

Tuesday, March 13, 2012

  Actual Average Record
Temperature  
Mean Temperature 56 °F 53 °F  
Max Temperature 59 °F 63 °F 85 °F (2017)
Min Temperature 52 °F 44 °F 34 °F (2006)
Degree Days  
Heating Degree Days 9    
Month to date heating degree days 137  
Since 1 July heating degree days 1942  
Cooling Degree Days 0    
Month to date cooling degree days 0  
Year to date cooling degree days 0  
Growing Degree Days 5 (Base 50)    
Moisture  
Dew Point 48 °F    
Average Humidity 72    
Maximum Humidity 83    
Minimum Humidity 61    
Precipitation  
Precipitation 0.45 in - 1.57 in (2016)
Month to date precipitation 0.78  
Year to date precipitation 4.38  
Since 1 July precipitation 8.67  
Sea Level Pressure  
Sea Level Pressure 30.02 in    
Wind  
Wind Speed 4 mph (South)    
Max Wind Speed 16 mph    
Max Gust Speed 33 mph    
Visibility 7 miles    
Events Rain    
T = Trace of Precipitation, MM = Missing Value Source: NWS Daily Summary

Daily Weather History Graph

Daily Weather History Graph

Search for Another Location

Airport or City:

Trip Planner

Search our weather history database for the weather conditions in past years. The results will help you decide how hot, cold, wet, or windy it might be!

Date:

Astronomy

Mar. 13, 2012 Rise Set
Actual Time 7:20 AM PDT 7:13 PM PDT
Civil Twilight 6:54 AM PDT 7:39 PM PDT
Nautical Twilight 6:24 AM PDT 8:09 PM PDT
Astronomical Twilight 5:53 AM PDT 8:39 PM PDT
Moon 12:41 AM PDT (3/13) 10:47 AM PDT (3/13)
Length of Visible Light 12h 44m
Length of Day
11h 53m
Waning Gibbous, 64% of the Moon is Illuminated
Mar 13
Waning Gibbous
Mar 14
Last Quarter
Mar 22
New
Mar 30
First Quarter
Apr 6
Full

Hourly Weather History & Observations

Time (PDT) Temp. Dew Point Humidity Pressure Visibility Wind Dir Wind Speed Gust Speed Precip Events Conditions
12:53 AM 55.9 °F 46.9 °F 72% 30.02 in 10.0 mi South 4.6 mph - N/A   Overcast
1:53 AM 55.9 °F 46.9 °F 72% 30.02 in 10.0 mi South 6.9 mph - N/A   Overcast
2:53 AM 55.0 °F 44.1 °F 67% 30.01 in 10.0 mi South 6.9 mph - 0.00 in   Overcast
3:53 AM 55.0 °F 43.0 °F 64% 30.00 in 10.0 mi South 5.8 mph - N/A   Overcast
5:11 AM 53.6 °F 48.2 °F 82% 29.99 in 6.0 mi South 5.8 mph - 0.00 in Rain Light Rain
5:38 AM 53.6 °F 46.4 °F 77% 29.99 in 10.0 mi ESE 3.5 mph - 0.00 in   Overcast
5:53 AM 54.0 °F 46.0 °F 75% 30.00 in 10.0 mi Calm Calm - 0.00 in   Overcast
6:21 AM 53.6 °F 46.4 °F 77% 29.99 in 2.5 mi SE 4.6 mph - 0.02 in Rain Light Rain
6:28 AM 51.8 °F 46.4 °F 82% 29.99 in 3.0 mi ESE 4.6 mph - 0.03 in Rain Light Rain
6:50 AM 51.8 °F 46.4 °F 82% 29.98 in 5.0 mi East 8.1 mph - 0.03 in Rain Light Rain
6:53 AM 52.0 °F 46.9 °F 83% 29.98 in 6.0 mi East 6.9 mph - 0.03 in Rain Light Rain
7:53 AM 53.1 °F 46.9 °F 80% 29.99 in 10.0 mi Calm Calm - 0.00 in   Overcast
8:46 AM 53.6 °F 46.4 °F 77% 30.01 in 5.0 mi Calm Calm - 0.01 in Rain Light Rain
8:53 AM 53.1 °F 46.9 °F 80% 30.02 in 4.0 mi Calm Calm - 0.01 in Rain Light Rain
9:53 AM 54.0 °F 48.0 °F 80% 30.04 in 8.0 mi Calm Calm - 0.04 in Rain Light Rain
10:21 AM 53.6 °F 48.2 °F 82% 30.04 in 1.8 mi NW 3.5 mph - 0.03 in Rain Rain
10:48 AM 53.6 °F 48.2 °F 82% 30.04 in 2.5 mi Calm Calm - 0.10 in Rain Rain
10:53 AM 54.0 °F 48.9 °F 83% 30.04 in 3.0 mi Calm Calm - 0.11 in Rain Rain
11:00 AM 55.4 °F 48.2 °F 77% 30.04 in 4.0 mi Calm Calm - 0.01 in Rain Light Rain
11:53 AM 55.9 °F 50.0 °F 80% 30.05 in 3.0 mi Calm Calm - 0.08 in Rain Rain
12:13 PM 55.4 °F 50.0 °F 82% 30.05 in 2.5 mi Calm Calm - 0.04 in Rain Rain
12:32 PM 55.4 °F 50.0 °F 82% 30.04 in 3.0 mi Calm Calm - 0.07 in Rain Rain
1:53 PM 57.0 °F 51.1 °F 81% 30.03 in 5.0 mi West 5.8 mph - 0.04 in Rain Light Rain
2:53 PM 57.0 °F 51.1 °F 81% 30.02 in 10.0 mi Calm Calm - 0.01 in   Overcast
3:53 PM 57.9 °F 48.9 °F 72% 30.02 in 10.0 mi Calm Calm - 0.00 in Rain Light Rain
4:53 PM 57.9 °F 48.0 °F 70% 30.03 in 10.0 mi SSW 12.7 mph 17.3 mph 0.00 in   Overcast
5:12 PM 57.2 °F 48.2 °F 72% 30.02 in 10.0 mi SSW 11.5 mph - N/A   Overcast
5:48 PM 57.2 °F 48.2 °F 72% 30.02 in 10.0 mi SSW 13.8 mph - N/A   Overcast
5:53 PM 57.9 °F 48.9 °F 72% 30.02 in 10.0 mi SSW 12.7 mph - N/A   Overcast
6:53 PM 59.0 °F 48.0 °F 67% 30.03 in 10.0 mi South 12.7 mph - N/A   Overcast
7:53 PM 57.9 °F 48.0 °F 70% 30.03 in 10.0 mi SSW 11.5 mph - N/A   Overcast
8:53 PM 57.9 °F 48.9 °F 72% 30.04 in 10.0 mi SW 5.8 mph - 0.00 in Rain Light Rain
9:53 PM 57.0 °F 48.9 °F 74% 30.05 in 10.0 mi Calm Calm - 0.00 in Rain Light Rain
10:53 PM 57.0 °F 48.9 °F 74% 30.05 in 10.0 mi Calm Calm - 0.00 in   Overcast
11:53 PM 57.0 °F 48.9 °F 74% 30.05 in 10.0 mi SW 3.5 mph - N/A   Overcast